Altus, OK

8:48 AM CST on February 06, 2016 (GMT -0600)
Altus Air Force Base

Weather History for KLTS - December, 2011

Change the Weather History Date:

Sunday, December 11, 2011

  Actual Average Record
Temperature  
Mean Temperature 40 °F -  
Max Temperature 42 °F 52 °F 71 °F (1996)
Min Temperature 37 °F 28 °F 15 °F (2000)
Degree Days  
Heating Degree Days 26    
Moisture  
Dew Point 38 °F    
Average Humidity 94    
Maximum Humidity 100    
Minimum Humidity 86    
Precipitation  
Precipitation 0.06 in - - ()
Sea Level Pressure  
Sea Level Pressure 30.33 in    
Wind  
Wind Speed 8 mph (SSE)    
Max Wind Speed 17 mph    
Max Gust Speed 21 mph    
Visibility 7 miles    
Events Rain    
Averages and records for this station are not official NWS values.
T = Trace of Precipitation, MM = Missing Value Source: NWS Daily Summary

Daily Weather History Graph

Daily Weather History Graph

Search for Another Location

Airport or City:

Trip Planner

Search our weather history database for the weather conditions in past years. The results will help you decide how hot, cold, wet, or windy it might be!

Date:

Astronomy

Dec. 11, 2011 Rise Set
Actual Time 7:33 AM CST 5:26 PM CST
Civil Twilight 7:05 AM CST 5:54 PM CST
Nautical Twilight 6:34 AM CST 6:26 PM CST
Astronomical Twilight 6:03 AM CST 6:56 PM CST
Moon 6:38 PM CST (12/11) 8:23 AM CST (12/11)
Length of Visible Light 10h 48m
Length of Day
9h 52m
Full, 99% of the Moon is Illuminated
Dec 11
Full
Dec 17
Last Quarter
Dec 24
New
Jan 1
First Quarter
Jan 9
Full

Hourly Weather History & Observations

Time (CST) Temp. Windchill Dew Point Humidity Pressure Visibility Wind Dir Wind Speed Gust Speed Precip Events Conditions
12:16 AM 39.2 °F 35.9 °F 35.6 °F 87% 30.46 in 10.0 mi SSW 4.6 mph - N/A   Overcast
12:20 AM 39.2 °F 35.9 °F 35.6 °F 87% 30.46 in 10.0 mi SSW 4.6 mph - N/A   Overcast
12:55 AM 38.8 °F 35.4 °F 35.6 °F 88% 30.45 in 9.0 mi South 4.6 mph - N/A   Overcast
1:05 AM 39.2 °F 35.9 °F 35.6 °F 87% 30.45 in 8.0 mi South 4.6 mph - N/A   Overcast
1:08 AM 39.2 °F 37.0 °F 35.6 °F 87% 30.45 in 8.0 mi South 3.5 mph - N/A   Overcast
1:10 AM 39.2 °F 35.9 °F 35.6 °F 87% 30.45 in 8.0 mi South 4.6 mph - N/A   Overcast
1:55 AM 38.8 °F 34.6 °F 35.4 °F 88% 30.43 in 10.0 mi South 5.8 mph - N/A   Overcast
2:27 AM 39.2 °F 35.0 °F 35.6 °F 87% 30.42 in 10.0 mi South 5.8 mph - N/A   Overcast
2:55 AM 38.8 °F 34.6 °F 35.1 °F 86% 30.41 in 10.0 mi South 5.8 mph - N/A   Overcast
3:31 AM 39.2 °F 33.6 °F 35.6 °F 87% 30.39 in 7.0 mi SSE 8.1 mph - N/A   Mostly Cloudy
3:35 AM 39.2 °F 34.2 °F 35.6 °F 87% 30.40 in 7.0 mi South 6.9 mph - N/A   Mostly Cloudy
3:55 AM 38.8 °F 33.8 °F 35.1 °F 86% 30.39 in 10.0 mi South 6.9 mph - N/A   Overcast
4:14 AM 39.2 °F 35.0 °F 35.6 °F 87% 30.39 in 10.0 mi South 5.8 mph - N/A Rain Light Rain
4:31 AM 39.2 °F 35.9 °F 35.6 °F 87% 30.38 in 10.0 mi South 4.6 mph - N/A   Mostly Cloudy
4:55 AM 38.1 °F 33.7 °F 35.8 °F 91% 30.38 in 10.0 mi South 5.8 mph - 0.00 in   Mostly Cloudy
5:23 AM 37.4 °F 32.8 °F 35.6 °F 93% 30.37 in 7.0 mi SSE 5.8 mph - N/A   Overcast
5:55 AM 37.9 °F 33.5 °F 36.1 °F 93% 30.37 in 7.0 mi South 5.8 mph - N/A   Overcast
6:09 AM 37.4 °F 32.8 °F 35.6 °F 93% 30.37 in 6.0 mi SSE 5.8 mph - N/A   Overcast
6:17 AM 37.4 °F 33.8 °F 35.6 °F 93% 30.37 in 6.0 mi SSE 4.6 mph - N/A   Overcast
6:55 AM 37.9 °F 33.5 °F 36.7 °F 95% 30.37 in 6.0 mi SSE 5.8 mph - N/A   Mostly Cloudy
7:00 AM 37.4 °F 32.8 °F 37.4 °F 100% 30.38 in 6.0 mi SSE 5.8 mph - N/A   Mostly Cloudy
7:03 AM 37.4 °F 32.8 °F 37.4 °F 100% 30.38 in 5.0 mi SSE 5.8 mph - N/A   Mostly Cloudy
7:04 AM 37.4 °F 32.8 °F 37.4 °F 100% 30.38 in 5.0 mi SSE 5.8 mph - N/A   Mostly Cloudy
7:15 AM 37.4 °F 32.8 °F 37.4 °F 100% 30.38 in 5.0 mi SSE 5.8 mph - N/A   Mostly Cloudy
7:21 AM 37.4 °F 32.8 °F 37.4 °F 100% 30.38 in 5.0 mi SSE 5.8 mph - N/A   Mostly Cloudy
7:32 AM 37.4 °F 32.1 °F 37.4 °F 100% 30.38 in 5.0 mi South 6.9 mph - N/A   Overcast
7:55 AM 37.9 °F 33.5 °F 36.9 °F 96% 30.38 in 4.0 mi SSE 5.8 mph - 0.00 in   Mostly Cloudy
8:42 AM 39.2 °F 34.2 °F 37.4 °F 93% 30.38 in 4.0 mi SSE 6.9 mph - N/A Rain Light Rain
8:55 AM 38.7 °F 32.9 °F 37.2 °F 95% 30.37 in 4.0 mi SSE 8.1 mph - 0.00 in Rain Light Rain
9:18 AM 39.2 °F 33.0 °F 37.4 °F 93% 30.37 in 5.0 mi SSE 9.2 mph - N/A Rain Light Rain
9:37 AM 39.2 °F 33.0 °F 39.2 °F 100% 30.37 in 4.0 mi SSE 9.2 mph - N/A Rain Light Rain
9:55 AM 39.0 °F 32.8 °F 38.8 °F 99% 30.38 in 4.0 mi SSE 9.2 mph - 0.02 in Rain Light Rain
10:00 AM 39.2 °F 32.5 °F 39.2 °F 100% 30.38 in 4.0 mi SSE 10.4 mph - N/A Rain Light Rain
10:10 AM 39.2 °F 32.5 °F 39.2 °F 100% 30.38 in 4.0 mi SSE 10.4 mph - N/A Rain Light Rain
10:17 AM 39.2 °F 32.5 °F 39.2 °F 100% 30.38 in 4.0 mi SSE 10.4 mph - N/A Rain Light Rain
10:20 AM 39.2 °F 32.0 °F 39.2 °F 100% 30.38 in 3.0 mi SSE 11.5 mph - N/A Rain Light Rain
10:27 AM 39.2 °F 32.5 °F 39.2 °F 100% 30.38 in 3.0 mi SSE 10.4 mph - N/A Rain Light Rain
10:46 AM 39.2 °F 32.5 °F 39.2 °F 100% 30.38 in 3.0 mi SSE 10.4 mph - N/A Rain Light Rain
10:55 AM 39.6 °F 32.5 °F 39.4 °F 99% 30.38 in 3.0 mi SSE 11.5 mph - 0.03 in Rain Light Rain
11:10 AM 39.2 °F 32.0 °F 39.2 °F 100% 30.37 in 4.0 mi SSE 11.5 mph - N/A Rain Light Rain
11:16 AM 39.2 °F 31.6 °F 39.2 °F 100% 30.37 in 4.0 mi SSE 12.7 mph - N/A   Light Drizzle
11:26 AM 39.2 °F 31.2 °F 39.2 °F 100% 30.36 in 4.0 mi SSE 13.8 mph - N/A Rain Light Rain
11:45 AM 39.2 °F 32.0 °F 39.2 °F 100% 30.35 in 4.0 mi SSE 11.5 mph - N/A Rain Light Rain
11:55 AM 40.1 °F 32.4 °F 39.7 °F 99% 30.35 in 4.0 mi SSE 13.8 mph - 0.00 in   Light Drizzle
12:20 PM 41.0 °F 33.5 °F 39.2 °F 93% 30.33 in 4.0 mi SSE 13.8 mph - N/A   Overcast
12:46 PM 41.0 °F 32.8 °F 41.0 °F 100% 30.32 in 5.0 mi SSE 16.1 mph - N/A   Overcast
12:55 PM 40.8 °F 32.6 °F 40.6 °F 99% 30.31 in 5.0 mi SSE 16.1 mph - 0.01 in   Overcast
1:12 PM 41.0 °F 33.5 °F 41.0 °F 100% 30.30 in 7.0 mi SSE 13.8 mph - N/A   Overcast
1:21 PM 41.0 °F 32.8 °F 41.0 °F 100% 30.29 in 8.0 mi South 16.1 mph - N/A   Overcast
1:55 PM 42.1 °F 34.5 °F 40.5 °F 94% 30.27 in 10.0 mi South 15.0 mph - N/A   Overcast
2:10 PM 42.8 °F 34.8 °F 41.0 °F 93% 30.26 in 10.0 mi SSE 17.3 mph 20.7 mph N/A   Overcast
2:16 PM 42.8 °F 35.4 °F 39.2 °F 87% 30.26 in 10.0 mi SSE 15.0 mph - N/A   Overcast
2:37 PM 42.8 °F 34.8 °F 41.0 °F 93% 30.26 in 9.0 mi SSE 17.3 mph - N/A Rain Light Rain
2:55 PM 42.4 °F 35.0 °F 40.6 °F 93% 30.25 in 8.0 mi SSE 15.0 mph - 0.00 in Rain Light Rain
3:01 PM 42.8 °F 35.8 °F 41.0 °F 93% 30.25 in 9.0 mi SSE 13.8 mph - N/A   Light Drizzle
3:07 PM 42.8 °F 35.8 °F 41.0 °F 93% 30.25 in 10.0 mi SSE 13.8 mph - N/A   Overcast
3:21 PM 42.8 °F 35.8 °F 41.0 °F 93% 30.25 in 10.0 mi SSE 13.8 mph - N/A Rain Light Rain
3:47 PM 42.8 °F 36.6 °F 41.0 °F 93% 30.25 in 7.0 mi SSE 11.5 mph - N/A   Overcast
3:55 PM 42.4 °F 36.1 °F 41.5 °F 97% 30.25 in 8.0 mi SSE 11.5 mph - 0.00 in   Overcast
4:55 PM 41.5 °F 34.6 °F 40.3 °F 95% 30.22 in 8.0 mi SE 12.7 mph - N/A   Overcast
5:55 PM 41.0 °F 35.2 °F 39.9 °F 96% 30.23 in 10.0 mi SE 9.2 mph - N/A   Overcast
6:39 PM 41.0 °F 34.3 °F 39.2 °F 93% 30.23 in 8.0 mi SE 11.5 mph - N/A   Overcast
6:55 PM 40.5 °F 34.1 °F 39.4 °F 96% 30.23 in 9.0 mi SE 10.4 mph - N/A   Overcast
7:34 PM 41.0 °F 34.7 °F 39.2 °F 93% 30.23 in 8.0 mi SE 10.4 mph - N/A   Overcast
7:47 PM 41.0 °F 34.3 °F 39.2 °F 93% 30.22 in 8.0 mi SE 11.5 mph - N/A   Overcast
7:55 PM 40.1 °F 33.2 °F 39.0 °F 96% 30.22 in 8.0 mi SE 11.5 mph - N/A   Overcast
7:57 PM 41.0 °F 34.7 °F 39.2 °F 93% 30.23 in 8.0 mi SE 10.4 mph - N/A   Overcast
8:08 PM 41.0 °F 34.7 °F 39.2 °F 93% 30.23 in 8.0 mi SSE 10.4 mph - N/A   Overcast
8:22 PM 41.0 °F 34.7 °F 39.2 °F 93% 30.22 in 8.0 mi SSE 10.4 mph - N/A   Overcast
8:45 PM 41.0 °F 35.2 °F 39.2 °F 93% 30.23 in 8.0 mi SSE 9.2 mph - N/A   Overcast
8:55 PM 40.3 °F 34.4 °F 39.2 °F 96% 30.23 in 8.0 mi SSE 9.2 mph - N/A   Overcast
9:06 PM 41.0 °F 35.8 °F 39.2 °F 93% 30.23 in 9.0 mi SSE 8.1 mph - N/A   Overcast
9:17 PM 41.0 °F 34.7 °F 39.2 °F 93% 30.22 in 9.0 mi SE 10.4 mph - N/A   Overcast
9:35 PM 41.0 °F 34.3 °F 39.2 °F 93% 30.22 in 9.0 mi SSE 11.5 mph - N/A   Overcast
9:55 PM 40.5 °F 33.6 °F 39.0 °F 95% 30.22 in 9.0 mi SSE 11.5 mph - N/A   Overcast
10:12 PM 41.0 °F 33.5 °F 39.2 °F 93% 30.22 in 9.0 mi SSE 13.8 mph - N/A   Overcast
10:55 PM 41.0 °F 33.9 °F 37.9 °F 89% 30.22 in 10.0 mi SSE 12.7 mph - N/A   Overcast
11:55 PM 41.0 °F 35.2 °F 37.2 °F 86% 30.22 in 10.0 mi SSE 9.2 mph - N/A   Overcast